[[{"header":{"parameterUnit":"m.s-1","parameterCategory":1,"la1":30.2991,"la2":30.254,"lo1":-89.0895,"lo2":-89.0444,"dy":0.0017,"dx":0.0017,"nx":28,"ny":28,"refTime":"2024-03-23T09:00:00:Z","depth":0,"parameterNumber":2,"parameterNumberName":"U-component_of_WINDS"},"data":[0,0,0,0,0,0,0,0,0,0,0,0,0,0,0,0,0,0,0,0,0,0,0,0,0,0,0,0,0,0,0,0,0,0,0,0,0,0,0,0,0,0,0,0,0,0,0,0,0,0,0,0,0,0,0,0,0,0,-0.1647,-0.1647,0,-0.1687,-0.1687,-0.1688,-0.1705,-0.1704,-0.1704,-0.1704,-0.1748,-0.1749,-0.175,0,0,0,0,0,0,0,0,0,0,0,0,0,-0.1585,-0.1586,-0.1646,-0.1647,-0.1648,-0.1687,-0.1687,-0.1688,-0.1705,-0.1704,-0.1704,-0.1704,-0.1747,-0.1749,-0.175,0,0,0,0,0,0,0,0,0,0,0,0,0,-0.1618,-0.1587,-0.1646,-0.1661,-0.1662,-0.1687,-0.1687,-0.1688,-0.1705,-0.1704,-0.1704,-0.1704,-0.1747,-0.1749,-0.1751,-0.1765,0,0,-0.1756,-0.1757,0,0,0,0,0,0,0,0,-0.1616,-0.162,-0.1658,-0.166,-0.1661,-0.169,-0.1682,-0.1714,-0.1705,-0.1689,-0.1704,-0.1704,-0.1729,-0.1732,-0.174,-0.1767,-0.1769,-0.1756,-0.1758,-0.1758,-0.1759,0,0,0,0,0,0,0,-0.1613,-0.1618,-0.1663,-0.1658,-0.1661,-0.1665,-0.167,-0.1688,-0.1709,-0.169,-0.1691,-0.1696,-0.173,-0.1738,-0.1741,-0.1769,-0.1756,-0.1758,-0.1759,-0.176,-0.1809,-0.1809,0,0,0,0,0,0,-0.1609,-0.1616,-0.1661,-0.1664,-0.1638,-0.1666,-0.1671,-0.1681,-0.1709,-0.1713,-0.1696,-0.1696,-0.1735,-0.1739,-0.1743,-0.1761,-0.1758,-0.176,-0.1761,-0.1808,-0.1809,-0.1809,0,0,0,0,0,0,-0.1607,-0.1613,-0.166,-0.164,-0.1647,-0.1668,-0.1679,-0.1682,-0.1691,-0.1713,-0.1717,-0.17,-0.1735,-0.174,-0.1759,-0.1763,-0.1761,-0.1763,-0.1808,-0.1808,-0.1809,-0.1797,0,0,0,0,0,0,-0.1605,-0.1612,-0.1617,-0.164,-0.1648,-0.1674,-0.1679,-0.1683,-0.1694,-0.1695,-0.1719,-0.1723,-0.1736,-0.1756,-0.1761,-0.1765,-0.1764,-0.1808,-0.1808,-0.1809,-0.1797,-0.1797,-0.1797,0,0,0,0,0,-0.1603,-0.1613,-0.1617,-0.1623,-0.1655,-0.1675,-0.1679,-0.1693,-0.1694,-0.17,-0.1714,-0.1722,-0.1761,-0.1758,-0.1763,-0.1768,-0.1808,-0.1808,-0.1809,-0.1798,-0.1797,-0.1797,0,0,0,0,0,0,-0.1591,-0.1616,-0.1622,-0.1639,-0.1654,-0.1677,-0.1685,-0.1692,-0.1708,-0.1709,-0.1726,-0.1732,-0.1749,-0.176,-0.1756,-0.1783,-0.1785,-0.1787,-0.1775,-0.1775,-0.1774,-0.1772,-0.1766,0,0,0,0,0,-0.159,-0.1604,-0.1625,-0.1639,-0.1646,-0.1664,-0.1673,-0.1683,-0.17,-0.1707,-0.1722,-0.1739,-0.1755,-0.1766,-0.1782,-0.1799,-0.1804,-0.1805,-0.1805,-0.1804,-0.1806,-0.1815,-0.1816,-0.181,-0.181,-0.181,0,0,-0.1589,-0.1605,-0.1613,-0.1637,-0.165,-0.1664,-0.167,-0.1685,-0.1695,-0.1709,-0.1727,-0.1739,-0.1759,-0.1777,-0.1785,-0.1787,-0.1808,-0.1805,-0.1804,-0.1806,-0.1816,-0.1816,-0.1817,-0.181,-0.181,-0.181,0,0,-0.1595,-0.1607,-0.162,-0.1632,-0.1651,-0.1663,-0.1666,-0.1687,-0.1696,-0.1714,-0.1724,-0.1737,-0.1765,-0.1778,-0.1789,-0.1797,-0.1805,-0.1802,-0.1801,-0.181,-0.181,-0.1811,-0.1814,-0.1815,-0.1803,-0.1803,-0.1803,0,-0.1591,-0.1612,-0.1625,-0.1639,-0.165,-0.1662,-0.1674,-0.1686,-0.171,-0.1717,-0.1718,-0.1752,-0.1766,-0.1787,-0.1789,-0.1797,-0.1801,-0.18,-0.1809,-0.181,-0.181,-0.1813,-0.1814,-0.1803,-0.1803,-0.1803,-0.1803,0,-0.1607,-0.1621,-0.1629,-0.165,-0.1661,-0.1674,-0.169,-0.17,-0.1708,-0.1719,-0.1737,-0.1754,-0.1774,-0.1779,-0.1788,-0.1801,-0.1801,-0.1806,-0.1808,-0.181,-0.1813,-0.1815,-0.1802,-0.1802,-0.1802,-0.1802,0,0,-0.1607,-0.1634,-0.1637,-0.1646,-0.1668,-0.1679,-0.1693,-0.1711,-0.1719,-0.1734,-0.1746,-0.1768,-0.1772,-0.1784,-0.1794,-0.1801,-0.1807,-0.1805,-0.1805,-0.1804,-0.1822,-0.1819,-0.182,-0.1811,-0.1812,-0.1812,-0.182,0,-0.1615,-0.1639,-0.1651,-0.167,-0.1683,-0.1694,-0.1706,-0.172,-0.1731,-0.1744,-0.1756,-0.1772,-0.1775,-0.1782,-0.1791,-0.1804,-0.181,-0.1804,-0.1823,-0.1824,-0.1818,-0.1822,-0.1819,-0.1826,-0.1822,-0.1822,-0.1822,0,-0.1628,-0.1643,-0.1663,-0.1681,-0.1687,-0.1698,-0.1715,-0.1727,-0.1743,-0.1751,-0.1763,-0.1772,-0.1787,-0.1787,-0.1808,-0.1803,-0.1812,-0.1819,-0.182,-0.1823,-0.1823,-0.1825,-0.1829,-0.183,-0.1824,-0.1824,-0.1824,0,-0.1626,-0.1651,-0.1666,-0.1673,-0.1696,-0.1703,-0.1712,-0.1728,-0.1738,-0.1753,-0.176,-0.1776,-0.1785,-0.1798,-0.1812,-0.1811,-0.1831,-0.1833,-0.1838,-0.1837,-0.1842,-0.1842,-0.1847,-0.1847,-0.1847,-0.1847,-0.1847,0,-0.1635,-0.1647,-0.1665,-0.1674,-0.1688,-0.1701,-0.1714,-0.1725,-0.1739,-0.175,-0.1761,-0.1772,-0.1789,-0.1802,-0.1812,-0.1828,-0.1832,-0.1838,-0.1841,-0.1838,-0.1837,-0.1844,-0.1844,-0.1847,-0.1847,-0.1847,-0.1847,0,-0.1635,-0.1648,-0.1665,-0.1684,-0.1689,-0.1698,-0.1715,-0.1724,-0.1735,-0.1749,-0.1754,-0.1771,-0.1786,-0.1801,-0.1822,-0.1829,-0.1844,-0.1848,-0.1839,-0.184,-0.1844,-0.1844,-0.1855,-0.1857,-0.1855,-0.1855,-0.1855,0,-0.164,-0.1649,-0.1669,-0.1677,-0.1686,-0.1699,-0.1709,-0.1722,-0.1731,-0.175,-0.1757,-0.1773,-0.1787,-0.1811,-0.1826,-0.1842,-0.1846,-0.1849,-0.1849,-0.1845,-0.1846,-0.1846,-0.1847,-0.1849,-0.1849,-0.1849,-0.1849,0,-0.1647,-0.1653,-0.1666,-0.168,-0.1691,-0.1704,-0.1717,-0.1723,-0.1739,-0.1749,-0.1764,-0.1775,-0.1795,-0.1811,-0.1829,-0.1839,-0.1847,-0.1848,-0.1851,-0.1847,-0.1842,-0.1845,-0.1838,-0.1849,-0.1849,-0.1849,-0.1849,-0.1849,-0.165,-0.1659,-0.1673,-0.1687,-0.1698,-0.1709,-0.1719,-0.173,-0.1743,-0.1761,-0.1767,-0.1783,-0.1799,-0.1822,-0.1833,-0.1845,-0.1847,-0.185,-0.1851,-0.1851,-0.185,-0.1839,-0.1848,-0.1848,-0.1848,-0.1849,-0.1849,0,-0.1658,-0.1667,-0.168,-0.1697,-0.1708,-0.1713,-0.1727,-0.1736,-0.1749,-0.1762,-0.1775,-0.1793,-0.1808,-0.1823,-0.1839,-0.1846,-0.185,-0.185,-0.185,-0.1852,-0.1848,-0.1845,-0.1846,-0.1846,-0.1846,-0.1846,-0.1846,-0.1846,-0.1663,-0.1677,-0.1684,-0.1704,-0.1714,-0.1728,-0.1736,-0.1747,-0.1757,-0.1776,-0.1788,-0.1797,-0.1811,-0.1828,-0.1842,-0.1846,-0.1852,-0.1851,-0.1856,-0.1852,-0.1852,-0.1852,-0.1849,-0.1852,-0.1852,-0.1859,-0.1859,-0.1859]},{"header":{"parameterUnit":"m.s-1","parameterCategory":1,"la1":30.2991,"la2":30.254,"lo1":-89.0895,"lo2":-89.0444,"dy":0.0017,"dx":0.0017,"nx":28,"ny":28,"refTime":"2024-03-23T09:00:00:Z","depth":0,"parameterNumber":3,"parameterNumberName":"V-component_of_WINDS"},"data":[0,0,0,0,0,0,0,0,0,0,0,0,0,0,0,0,0,0,0,0,0,0,0,0,0,0,0,0,0,0,0,0,0,0,0,0,0,0,0,0,0,0,0,0,0,0,0,0,0,0,0,0,0,0,0,0,0,0,-5.982,-5.9821,0,-5.9924,-5.9925,-5.9926,-5.9871,-5.9868,-5.9866,-5.9863,-5.997,-5.9975,-5.9981,0,0,0,0,0,0,0,0,0,0,0,0,0,-5.9574,-5.9578,-5.982,-5.9821,-5.9823,-5.9924,-5.9925,-5.9927,-5.9872,-5.9868,-5.9865,-5.9862,-5.9968,-5.9974,-5.9981,0,0,0,0,0,0,0,0,0,0,0,0,0,-5.968,-5.958,-5.982,-5.9807,-5.9807,-5.9924,-5.9925,-5.9927,-5.9872,-5.9868,-5.9864,-5.986,-5.9966,-5.9974,-5.9982,-6.0117,0,0,-6.0007,-6.001,0,0,0,0,0,0,0,0,-5.9674,-5.9689,-5.9808,-5.9808,-5.9808,-5.988,-5.9878,-5.9991,-5.9873,-5.9848,-5.9863,-5.9858,-5.9943,-5.9953,-5.9982,-6.0122,-6.0126,-6.0008,-6.0013,-6.0016,-6.0018,0,0,0,0,0,0,0,-5.9666,-5.9684,-5.9861,-5.981,-5.981,-5.9797,-5.9807,-5.9899,-5.9918,-5.985,-5.9846,-5.9859,-5.9943,-5.9974,-5.9984,-6.0128,-6.0007,-6.0015,-6.002,-6.0023,-6.0384,-6.0388,0,0,0,0,0,0,-5.966,-5.9678,-5.9858,-5.9864,-5.9729,-5.9804,-5.9816,-5.9862,-5.9917,-5.9921,-5.9862,-5.9856,-5.9962,-5.9975,-5.9988,-6.015,-6.0016,-6.0024,-6.0028,-6.0379,-6.0385,-6.039,0,0,0,0,0,0,-5.9655,-5.9676,-5.9854,-5.977,-5.9792,-5.9813,-5.9865,-5.9866,-5.9897,-5.9926,-5.993,-5.9891,-5.9959,-5.9976,-6.0085,-6.0153,-6.0027,-6.0035,-6.0374,-6.0381,-6.0387,-6.0475,0,0,0,0,0,0,-5.9648,-5.9675,-5.9726,-5.9772,-5.9796,-5.995,-5.9869,-5.9871,-5.9911,-5.9904,-5.9954,-5.9958,-5.9957,-6.0073,-6.0093,-6.0162,-6.0041,-6.0368,-6.0377,-6.0385,-6.0466,-6.0484,-6.0499,0,0,0,0,0,-5.9639,-5.9746,-5.9729,-5.9751,-5.9861,-5.9954,-5.9968,-5.9965,-5.9917,-5.9969,-5.9988,-5.9957,-6.0142,-6.0085,-6.0107,-6.0179,-6.0363,-6.0374,-6.0384,-6.0459,-6.048,-6.0499,0,0,0,0,0,0,-5.9708,-5.9752,-5.9733,-5.9859,-5.9903,-5.9944,-6.001,-5.9988,-6.0046,-6.0037,-6.003,-6.0042,-6.0156,-6.0178,-6.0114,-6.0312,-6.0245,-6.0261,-6.0294,-6.0315,-6.0331,-6.0324,-6.0048,0,0,0,0,0,-5.9738,-5.9809,-5.9844,-5.9951,-5.9974,-5.9988,-6.0028,-6.0022,-6.0068,-6.0086,-6.0113,-6.0158,-6.0226,-6.0272,-6.0336,-6.0468,-6.0479,-6.0529,-6.0545,-6.0559,-6.0573,-6.0645,-6.0668,-6.0424,-6.0424,-6.0424,0,0,-5.98,-5.9833,-5.9879,-5.9966,-5.9999,-6.0074,-6.0004,-6.0086,-6.0141,-6.0098,-6.0203,-6.0225,-6.0275,-6.0396,-6.0451,-6.0418,-6.0642,-6.0572,-6.0583,-6.059,-6.0658,-6.0682,-6.0702,-6.0432,-6.043,-6.0429,0,0,-5.9952,-5.9984,-6.0077,-6.0112,-6.0164,-6.0172,-6.0195,-6.024,-6.0252,-6.0357,-6.0327,-6.0392,-6.051,-6.0547,-6.0582,-6.0748,-6.0722,-6.0769,-6.0857,-6.0927,-6.0947,-6.0964,-6.1024,-6.1045,-6.0782,-6.0783,-6.0783,0,-6.0024,-6.0134,-6.0128,-6.0212,-6.0252,-6.0216,-6.0311,-6.0345,-6.0415,-6.0443,-6.0405,-6.0553,-6.0584,-6.0714,-6.0755,-6.0784,-6.0809,-6.0764,-6.0944,-6.0961,-6.0977,-6.1035,-6.1057,-6.0788,-6.0788,-6.0787,-6.0786,0,-6.022,-6.0297,-6.0366,-6.0435,-6.0482,-6.0571,-6.0579,-6.0627,-6.0616,-6.0629,-6.0737,-6.0773,-6.0844,-6.0874,-6.0865,-6.1004,-6.0982,-6.0944,-6.0877,-6.1006,-6.106,-6.1082,-6.0796,-6.0794,-6.0792,-6.0791,0,0,-6.0419,-6.0483,-6.0509,-6.054,-6.0594,-6.0654,-6.0741,-6.0811,-6.0853,-6.0903,-6.0976,-6.1077,-6.1042,-6.1082,-6.1076,-6.1138,-6.1268,-6.1092,-6.1093,-6.1125,-6.1425,-6.1454,-6.1479,-6.1251,-6.1255,-6.1258,-6.1421,0,-6.0576,-6.0729,-6.0726,-6.0868,-6.094,-6.0907,-6.0983,-6.1025,-6.1039,-6.1102,-6.1117,-6.1189,-6.1137,-6.1161,-6.1221,-6.124,-6.1329,-6.1228,-6.132,-6.1323,-6.131,-6.1507,-6.1538,-6.169,-6.1442,-6.1445,-6.1448,0,-6.0779,-6.0835,-6.0985,-6.1029,-6.1059,-6.1128,-6.1192,-6.1252,-6.1299,-6.1305,-6.1349,-6.1333,-6.1422,-6.1351,-6.1474,-6.1406,-6.1443,-6.1458,-6.1464,-6.1473,-6.1394,-6.1523,-6.1738,-6.1761,-6.1481,-6.1478,-6.1476,0,-6.0911,-6.1024,-6.1128,-6.1156,-6.121,-6.1259,-6.1284,-6.1326,-6.1368,-6.1424,-6.1452,-6.1517,-6.1554,-6.1605,-6.1607,-6.1555,-6.1732,-6.1661,-6.174,-6.174,-6.178,-6.1778,-6.2005,-6.1802,-6.1801,-6.1801,-6.1801,0,-6.1087,-6.118,-6.1189,-6.1253,-6.1356,-6.1352,-6.1454,-6.1474,-6.1512,-6.158,-6.1555,-6.1619,-6.1618,-6.1684,-6.1686,-6.1788,-6.1804,-6.1812,-6.1812,-6.1815,-6.1815,-6.1841,-6.1831,-6.1807,-6.1806,-6.1805,-6.1803,0,-6.1252,-6.1262,-6.1373,-6.1415,-6.1428,-6.1502,-6.1538,-6.16,-6.1611,-6.1697,-6.1717,-6.1736,-6.1811,-6.1819,-6.1907,-6.1908,-6.2032,-6.202,-6.2017,-6.2015,-6.2094,-6.2087,-6.2347,-6.2382,-6.2155,-6.2157,-6.2159,0,-6.1364,-6.1435,-6.1485,-6.1529,-6.1556,-6.1627,-6.167,-6.1668,-6.1714,-6.1773,-6.1827,-6.19,-6.1959,-6.2082,-6.2103,-6.217,-6.216,-6.2247,-6.217,-6.2172,-6.2163,-6.2159,-6.2167,-6.2262,-6.2264,-6.2266,-6.2268,0,-6.1563,-6.1564,-6.1628,-6.1693,-6.1746,-6.1797,-6.1845,-6.1882,-6.1886,-6.1939,-6.2016,-6.2062,-6.2152,-6.2225,-6.2291,-6.2316,-6.2294,-6.2292,-6.2314,-6.2319,-6.2315,-6.2319,-6.2058,-6.2286,-6.2284,-6.2283,-6.2282,-6.2281,-6.1707,-6.1768,-6.1813,-6.1885,-6.192,-6.1966,-6.2026,-6.2045,-6.2109,-6.2183,-6.2177,-6.2263,-6.2308,-6.2394,-6.2424,-6.2491,-6.2463,-6.2494,-6.2502,-6.2511,-6.252,-6.2303,-6.2503,-6.2503,-6.2502,-6.2502,-6.2501,0,-6.1905,-6.1932,-6.1998,-6.2066,-6.2123,-6.2095,-6.2147,-6.2196,-6.2272,-6.2316,-6.2374,-6.2463,-6.2534,-6.2561,-6.263,-6.2679,-6.2671,-6.2698,-6.2695,-6.2701,-6.2541,-6.2515,-6.2703,-6.2703,-6.2703,-6.2703,-6.2703,-6.2703,-6.2015,-6.2119,-6.2125,-6.2247,-6.2273,-6.2357,-6.2389,-6.2431,-6.2466,-6.2566,-6.2625,-6.2642,-6.2679,-6.2751,-6.2815,-6.2821,-6.2849,-6.2881,-6.2883,-6.2733,-6.2712,-6.2693,-6.2669,-6.2886,-6.2887,-6.3037,-6.3039,-6.304]}]]